Volver al catálogo

FENGYUN 1C DEB

ActivoPO
NORAD 37717·DEBRIS·🇨🇳 China

Lanzado May 10, 1999 desde Taiyuan Satellite Launch Center

Loading…

Próximos Pases (próximas 24 horas)

TLE

ActualizadoSource: Space-Track

Época: Sep 13, 2026, 05:41 UTC

1 37717U 99025EMJ 26256.23684294  .00028381  00000-0  15434-2 0  9990
2 37717  98.7478 252.7472 0034477 281.6415 141.8328 15.13925908935255

Sigue FENGYUN 1C DEB en tiempo real con AllMySat

Download on the App Store